Location: Decatur Area Astronomy Club
(40.0275°N, 88.7810°W)
Time: 06:47:04
(UTC-05:00)

Daily predictions for brighter satellites

Satellite Brightness Start Highest point End
(mag) Time Altitude Azimuth Time Altitude Azimuth Time Altitude Azimuth
CZ-4 DEB 3.1 20:42:29 10° S 20:45:41 70° WSW 20:48:56 10° NNW
Cosmos 1666 3.1 20:42:44 10° N 20:46:32 49° E 20:50:18 10° SSE
SL-16 R/B 2.9 20:44:31 10° SW 20:50:06 62° WNW 20:55:44 10° NNE
CZ-2D R/B 4.3 20:48:24 10° S 20:52:10 48° W 20:56:00 10° NNW
Cosmos 1461 3.0 20:48:49 10° NNW 20:53:06 66° ENE 20:57:09 10° SE
ATLAS CENTAUR Rocket 4.3 20:48:12 10° SW 20:54:06 40° SSE 21:22:54 10° E
USA 186 3.1 20:58:39 10° SSW 21:01:14 32° W 21:03:41 10° NNW
Atlas Centaur 2 3.5 20:54:50 10° SW 21:01:17 37° SSE 21:08:42 10° ESE
Meteor 1-15 Rocket 4.2 20:55:40 10° N 21:01:17 82° E 21:06:58 10° S
PSLV R/B 4.5 21:01:57 11° SE 21:04:20 26° ENE 21:07:00 10° NNE
Cosmos 1743 4.4 21:01:39 10° NNW 21:05:09 34° W 21:08:36 10° SSW
Cosmos 1603 3.7 21:13:40 10° SSW 21:19:17 89° ESE 21:24:56 10° NNE
YAOGAN 6 4.1 21:17:10 14° ESE 21:19:21 23° ENE 21:22:22 10° NNE
Tsikada Rocket 4.1 21:13:11 10° S 21:19:33 72° E 21:25:54 10° NNE
Cosmos 2058 Rocket 4.4 21:15:38 10° NNW 21:19:43 40° W 21:23:47 10° SSW
Cosmos 1939 Rocket 2.9 21:15:46 10° SSE 21:19:55 80° ENE 21:24:05 10° N
Cosmos 1602 Rocket 3.6 21:16:14 10° S 21:20:42 89° W 21:25:12 10° N
Lacrosse 5 rocket 4.4 21:22:17 10° WNW 21:24:36 15° NNW 21:26:58 10° N
Cosmos 1825 Rocket 4.5 21:22:14 15° SE 21:25:14 31° E 21:29:09 10° NNE
SeaSat 1 2.8 21:21:31 15° SE 21:25:26 52° ENE 21:30:14 10° NNW
H-2A R/B 4.0 21:26:41 10° E 21:29:19 14° ENE 21:31:59 10° NNE
Cosmos 1812 Rocket 3.5 21:27:52 10° N 21:32:16 78° E 21:35:59 14° SSE
COSMOS 2455 2.8 21:27:56 10° SSW 21:33:56 83° ESE 21:40:00 10° NNE
CZ-4B R/B 3.8 21:31:48 10° NNE 21:36:45 49° E 21:41:24 12° S
SPOT 1/Viking Rocket 4.1 21:34:19 18° SE 21:37:46 44° ENE 21:42:38 10° N
MetOp-A 4.2 21:34:38 17° SSE 21:38:48 65° ENE 21:44:07 10° N
Cosmos 1943 3.3 21:36:13 10° S 21:41:43 56° ESE 21:47:17 10° NNE
Cosmos 1943 Rocket 3.8 21:38:40 10° N 21:42:46 21° NE 21:46:09 13° E
Cosmos 1346 Rocket 3.6 21:41:40 24° SE 21:43:04 32° E 21:46:36 10° NNE
H-2A R/B 3.3 21:40:09 10° SSW 21:44:08 39° W 21:48:14 10° NNW
ATLAS 3B R/B 3.0 21:44:32 10° SSW 21:52:04 61° ESE 21:59:29 10° NE
USA 245 4.3 21:51:01 21° SSE 21:55:00 67° ENE 22:00:04 10° N
SL-08 RB Rocket 4.4 21:53:21 25° ESE 21:55:23 40° ENE 21:59:37 10° N
Cosmos 1634 Rocket 4.0 21:50:14 10° N 21:56:24 67° E 22:00:25 23° SSE
ISS -2.1 21:55:03 10° WSW 21:58:11 43° NNW 22:01:21 10° NE
PSLV R/B 3.5 22:03:49 10° W 22:07:22 75° N 22:09:13 26° ENE
USA 234 3.4 22:03:51 22° ESE 22:08:15 72° NE 22:14:48 10° NW
Lacrosse 4 Rocket 1.2 22:06:24 20° SSW 22:09:03 69° ESE 22:13:08 10° NNE
Cosmos 489 Rocket 4.5 22:03:38 14° S 22:09:07 64° ESE 22:15:25 10° NNE
CZ-4 R/B 3.9 22:04:17 10° NNE 22:09:17 70° ESE 22:12:24 23° S
Cosmos 1953 Rocket 3.5 22:09:37 29° S 22:11:50 77° E 22:16:17 10° N
Landsat 7 4.3 22:10:50 31° ESE 22:12:33 45° ENE 22:17:04 10° N
Envisat 4.1 22:08:34 12° SSW 22:12:54 39° W 22:17:39 10° NNW
SPOT 5 3.9 22:13:37 15° SSW 22:16:44 36° W 22:20:45 10° NNW
Cosmos 407 Rocket 3.4 22:13:07 18° S 22:17:03 77° ESE 22:22:17 10° NNE
ARGOS 3.1 22:14:27 30° SSE 22:17:14 82° ENE 22:22:42 10° NNW
Cosmos 1766 3.6 22:14:02 10° N 22:17:57 49° E 22:18:39 43° ESE
Cosmos 2279 Rocket 4.2 22:12:23 10° N 22:18:33 58° E 22:21:24 32° SE
SL-27 R/B 4.2 22:20:31 19° ENE 22:20:31 19° ENE 22:21:58 10° NE
Cosmos-2242 3.7 22:20:07 10° N 22:24:15 38° ENE 22:24:56 36° E
Cosmos 2369 Rocket 2.2 22:20:29 10° NNW 22:26:09 74° WSW 22:28:41 34° S
Terra 2.3 22:27:07 36° ESE 22:28:22 45° ENE 22:32:54 10° N
USA 238 DEB 4.0 22:28:44 28° S 22:32:03 47° ESE 22:38:45 10° NE
USA 238 4.0 22:28:57 29° S 22:32:09 46° ESE 22:38:50 10° NE
Cosmos 1954 Rocket 4.0 22:35:10 39° S 22:37:04 66° ESE 22:42:21 10° NNE
NOAA 11 4.3 22:35:08 34° S 22:37:33 72° WSW 22:42:59 10° NNW
Cosmos 2180 Rocket 4.5 22:34:37 10° N 22:40:55 73° E 22:43:22 39° SSE
CZ-4C R/B 3.6 22:43:44 51° SSW 22:44:36 67° W 22:48:40 10° NNW
Cosmos 1758 Rocket 4.1 22:43:56 30° SW 22:45:51 54° W 22:50:09 10° N
CARTOSAT-1 3.4 22:48:20 66° SE 22:48:53 78° ENE 22:53:13 10° N
Cosmos 1805 3.8 22:45:25 10° N 22:49:00 45° ENE 22:49:00 45° ENE
Atlas Centaur 2 3.4 22:43:10 10° WSW 22:50:26 42° S 22:52:20 37° SSE
DELTA 2 DEB (DPAF) 4.5 22:49:43 45° SSW 22:50:49 58° W 22:55:17 10° NNW
Cosmos 2263 4.4 22:49:09 10° NNW 22:54:40 60° WSW 22:56:24 41° SSW
SL-23 DEB 4.2 22:49:35 10° WSW 22:55:36 76° NW 22:59:15 10° NE
Cosmos 1741 Rocket 4.3 22:56:57 47° ESE 22:57:07 47° ESE 23:02:12 10° NNE
COSMOS 2406 3.2 22:57:41 52° SSE 22:58:45 62° ESE 23:04:25 10° NNE
SeaSat 1 4.3 23:01:18 16° SW 23:03:11 20° WSW 23:06:45 10° WNW
Cosmos 1953 2.2 22:59:20 10° N 23:03:10 81° N 23:03:10 81° N
Geosat 4.4 23:00:59 10° NNE 23:05:56 61° WNW 23:08:59 23° SW
H-2A R/B 2.1 23:07:09 54° SSW 23:08:06 68° WSW 23:13:10 10° NNW
Cosmos 1544 4.3 23:05:13 10° N 23:07:57 34° NE 23:07:57 34° NE
Cosmos 1850 Rocket 3.8 23:14:00 68° SE 23:14:26 72° ESE 23:19:38 10° NNE
Cosmos 1570 Rocket 3.9 23:09:58 10° NNW 23:15:20 76° ENE 23:16:03 65° SE
Cosmos 1842 Rocket 3.5 23:12:49 10° N 23:17:01 74° NE 23:17:01 74° NE
Cosmos 1707 4.3 23:24:10 27° NE 23:24:10 27° NE 23:26:24 10° NNE
Cosmos 1092 Rocket 3.9 23:22:26 56° SSE 23:23:48 76° E 23:30:06 10° N
Cosmos 1943 Rocket 2.3 23:21:28 10° NNW 23:26:55 59° WSW 23:27:40 54° SW
SL-8 R/B 4.4 23:23:00 10° NW 23:27:44 50° NNE 23:28:56 40° ENE
Cosmos 1140 Rocket 3.8 23:28:28 47° SW 23:29:47 64° WNW 23:35:01 10° NNE
Nadezhda 4 Rocket 4.2 23:32:16 43° SSW 23:34:19 67° W 23:40:39 10° N
ISS 0.1 23:33:34 10° NW 23:35:17 13° NNW 23:37:01 10° NNE
Meteor 1-24 Rocket 4.4 23:39:21 42° E 23:39:28 42° E 23:45:00 10° NNE
Cosmos 1656 Rocket 3.5 23:34:13 10° NNW 23:39:56 84° ENE 23:40:27 74° SE
ATLAS 3B R/B 4.4 23:36:20 10° WSW 23:43:14 35° NW 23:49:59 10° NNE
Cosmos 2084 4.4 23:40:19 10° NW 23:43:23 42° WNW 23:43:23 42° WNW
Lacrosse 4 Rocket 4.4 23:46:34 10° WNW 23:48:16 12° NW 23:49:59 10° NNW
NOSS 3-2 (A) 3.4 23:50:05 62° ESE 23:50:08 62° ESE 23:56:36 10° NE
COSMOS 2487 4.2 23:52:21 32° N 23:52:21 32° N 23:54:29 10° NNE
H-2A R/B 4.2 23:47:22 10° NNE 23:49:08 23° NE 23:49:08 23° NE
USA 234 4.2 23:51:11 31° SW 23:51:33 31° SW 23:57:15 10° WNW
Cosmos 1655 Rocket 4.0 23:51:26 62° SE 23:52:04 66° E 23:58:17 10° NNE
Cosmos 1733 4.4 23:50:22 10° N 23:53:01 42° N 23:53:01 42° N
